When you browse on this site, cookies collect data to enhance your experience and personalize the content and advertising you see.
Visit our Privacy Policy to learn more. By continuing to use the site, you agree to this use of cookies and data.
EN

Hourly Weather Banswada

Today, 5 July, Sunday

Time Temperature Precipitation Wind Pressure Humidity
00:00 +26°C° 0 mm 4 mps 717 mmHg 88%
01:00 +26°C° 0 mm 4 mps 717 mmHg 89%
02:00 +26°C° 0 mm 3 mps 716 mmHg 90%
03:00 +26°C° 0.5 mm 4 mps 716 mmHg 90%
04:00 +26°C° 0.5 mm 4 mps 716 mmHg 90%
05:00 +26°C° 0 mm 4 mps 716 mmHg 91%
06:00 +26°C° 1.2 mm 5 mps 717 mmHg 90%
07:00 +26°C° 1.2 mm 5 mps 717 mmHg 89%
08:00 +26°C° 1.2 mm 6 mps 717 mmHg 89%
09:00 +26°C° 1.2 mm 6 mps 717 mmHg 88%
10:00 +26°C° 1.2 mm 6 mps 718 mmHg 87%
11:00 +26°C° 0 mm 5 mps 718 mmHg 87%
12:00 +26°C° 0.9 mm 6 mps 717 mmHg 88%
13:00 +26°C° 0.9 mm 6 mps 717 mmHg 88%
14:00 +27°C° 0.9 mm 6 mps 717 mmHg 89%
15:00 +27°C° 0.7 mm 5 mps 717 mmHg 89%
16:00 +27°C° 0.7 mm 5 mps 716 mmHg 89%
17:00 +28°C° 0 mm 3 mps 716 mmHg 87%
18:00 +27°C° 2 mm 4 mps 716 mmHg 87%
19:00 +27°C° 2 mm 5 mps 717 mmHg 87%
20:00 +27°C° 2 mm 5 mps 717 mmHg 86%
21:00 +27°C° 0.9 mm 5 mps 718 mmHg 88%
22:00 +26°C° 0.9 mm 5 mps 718 mmHg 89%
23:00 +26°C° 0.9 mm 5 mps 718 mmHg 90%

Tomorrow, 6 July, Monday

Time Temperature Precipitation Wind Pressure Humidity
00:00 +26°C° 0.2 mm 5 mps 718 mmHg 90%
01:00 +26°C° 0.2 mm 4 mps 717 mmHg 90%
02:00 +26°C° 0.2 mm 4 mps 717 mmHg 89%
03:00 +25°C° 0.2 mm 4 mps 717 mmHg 89%
04:00 +25°C° 0.2 mm 4 mps 717 mmHg 89%
05:00 +25°C° 0.2 mm 4 mps 717 mmHg 89%
06:00 +26°C° 0 mm 4 mps 717 mmHg 88%
07:00 +26°C° 0 mm 4 mps 717 mmHg 88%
08:00 +26°C° 0 mm 4 mps 718 mmHg 88%
09:00 +26°C° 0.1 mm 4 mps 718 mmHg 86%
10:00 +26°C° 0.1 mm 4 mps 718 mmHg 85%
11:00 +27°C° 0.1 mm 5 mps 718 mmHg 83%
12:00 +27°C° 0.3 mm 5 mps 718 mmHg 82%
13:00 +27°C° 0.3 mm 5 mps 717 mmHg 80%
14:00 +28°C° 0.3 mm 5 mps 717 mmHg 79%
15:00 +28°C° 1.8 mm 5 mps 716 mmHg 80%
16:00 +27°C° 1.8 mm 4 mps 716 mmHg 81%
17:00 +27°C° 1.8 mm 4 mps 716 mmHg 82%
18:00 +27°C° 1.1 mm 5 mps 717 mmHg 83%
19:00 +26°C° 1.1 mm 5 mps 718 mmHg 84%
20:00 +26°C° 1.1 mm 5 mps 718 mmHg 85%
21:00 +26°C° 0.2 mm 5 mps 718 mmHg 86%
22:00 +26°C° 0.2 mm 4 mps 719 mmHg 87%
23:00 +26°C° 0.2 mm 4 mps 719 mmHg 88%

Day after tomorrow, 7 July, Tuesday

Time Temperature Precipitation Wind Pressure Humidity
00:00 +26°C° 0 mm 4 mps 718 mmHg 87%
01:00 +26°C° 0 mm 4 mps 718 mmHg 86%
02:00 +26°C° 0 mm 3 mps 717 mmHg 86%
03:00 +26°C° 0 mm 3 mps 718 mmHg 86%
04:00 +26°C° 0 mm 3 mps 718 mmHg 87%
05:00 +26°C° 0 mm 2 mps 718 mmHg 87%
06:00 +26°C° 0 mm 3 mps 718 mmHg 85%
07:00 +27°C° 0 mm 4 mps 719 mmHg 83%
08:00 +27°C° 0 mm 5 mps 720 mmHg 80%
09:00 +28°C° 0 mm 5 mps 720 mmHg 78%
10:00 +29°C° 0 mm 5 mps 720 mmHg 75%
11:00 +29°C° 0 mm 6 mps 720 mmHg 73%
12:00 +29°C° 0 mm 5 mps 720 mmHg 72%
13:00 +29°C° 0 mm 5 mps 719 mmHg 72%
14:00 +29°C° 0 mm 5 mps 719 mmHg 72%
15:00 +30°C° 0 mm 5 mps 718 mmHg 71%
16:00 +30°C° 0 mm 5 mps 718 mmHg 69%
17:00 +32°C° 0 mm 5 mps 718 mmHg 68%
18:00 +30°C° 0 mm 5 mps 719 mmHg 71%
19:00 +29°C° 0 mm 4 mps 719 mmHg 74%
20:00 +28°C° 0 mm 4 mps 720 mmHg 77%
21:00 +27°C° 0 mm 4 mps 720 mmHg 79%
22:00 +27°C° 0 mm 4 mps 720 mmHg 81%
23:00 +27°C° 0 mm 4 mps 720 mmHg 83%

8 July, Wednesday

Time Temperature Precipitation Wind Pressure Humidity
00:00 +26°C° 0 mm 4 mps 720 mmHg 83%
01:00 +26°C° 0 mm 4 mps 719 mmHg 84%
02:00 +26°C° 0 mm 4 mps 719 mmHg 84%
03:00 +26°C° 0 mm 4 mps 719 mmHg 85%
04:00 +26°C° 0 mm 4 mps 719 mmHg 86%
05:00 +26°C° 0 mm 3 mps 719 mmHg 86%
06:00 +27°C° 0 mm 4 mps 720 mmHg 83%
07:00 +27°C° 0 mm 4 mps 720 mmHg 81%
08:00 +28°C° 0 mm 4 mps 721 mmHg 78%
09:00 +29°C° 0 mm 4 mps 721 mmHg 75%
10:00 +30°C° 0 mm 5 mps 721 mmHg 73%
11:00 +30°C° 0 mm 5 mps 721 mmHg 71%
12:00 +32°C° 0 mm 5 mps 720 mmHg 68%
13:00 +33°C° 0 mm 5 mps 719 mmHg 64%
14:00 +34°C° 0 mm 5 mps 719 mmHg 61%
15:00 +33°C° 0.1 mm 5 mps 719 mmHg 62%
16:00 +33°C° 0.1 mm 4 mps 719 mmHg 63%
17:00 +33°C° 0.1 mm 4 mps 718 mmHg 64%
18:00 +31°C° 0.2 mm 3 mps 719 mmHg 67%
19:00 +30°C° 0.2 mm 3 mps 719 mmHg 70%
20:00 +29°C° 0.2 mm 2 mps 720 mmHg 73%
21:00 +29°C° 0.4 mm 2 mps 720 mmHg 75%
22:00 +29°C° 0.4 mm 3 mps 720 mmHg 76%
23:00 +28°C° 0.4 mm 3 mps 720 mmHg 78%

9 July, Thursday

Time Temperature Precipitation Wind Pressure Humidity
00:00 +28°C° 0.1 mm 3 mps 719 mmHg 79%
01:00 +27°C° 0.1 mm 3 mps 719 mmHg 81%
02:00 +27°C° 0.1 mm 3 mps 718 mmHg 83%
03:00 +27°C° 0.2 mm 3 mps 718 mmHg 84%
04:00 +27°C° 0.2 mm 2 mps 718 mmHg 85%
05:00 +27°C° 0.2 mm 2 mps 719 mmHg 85%
06:00 +27°C° 0.2 mm 3 mps 719 mmHg 82%
07:00 +28°C° 0.2 mm 3 mps 720 mmHg 78%
08:00 +29°C° 0.2 mm 4 mps 720 mmHg 74%
09:00 +30°C° 0.6 mm 4 mps 720 mmHg 71%
10:00 +32°C° 0.6 mm 4 mps 720 mmHg 67%
11:00 +32°C° 0.6 mm 4 mps 720 mmHg 64%
12:00 +33°C° 0.6 mm 4 mps 719 mmHg 63%
13:00 +33°C° 0.6 mm 4 mps 719 mmHg 61%
14:00 +34°C° 0.6 mm 4 mps 718 mmHg 59%
15:00 +34°C° 0.1 mm 4 mps 718 mmHg 61%
16:00 +34°C° 0.1 mm 4 mps 718 mmHg 62%
17:00 +34°C° 0.1 mm 3 mps 717 mmHg 64%
18:00 +31°C° 0.1 mm 3 mps 718 mmHg 68%
19:00 +30°C° 0.1 mm 3 mps 718 mmHg 73%
20:00 +29°C° 0.1 mm 3 mps 718 mmHg 77%
21:00 +29°C° 0 mm 3 mps 718 mmHg 77%
22:00 +29°C° 0 mm 3 mps 719 mmHg 78%
23:00 +28°C° 0 mm 4 mps 719 mmHg 78%

10 July, Friday

Time Temperature Precipitation Wind Pressure Humidity
00:00 +28°C° 0.1 mm 4 mps 718 mmHg 79%
01:00 +28°C° 0.1 mm 4 mps 718 mmHg 80%
02:00 +28°C° 0.1 mm 4 mps 718 mmHg 81%
03:00 +27°C° 0 mm 3 mps 718 mmHg 82%
04:00 +27°C° 0 mm 3 mps 718 mmHg 84%
05:00 +26°C° 0 mm 3 mps 718 mmHg 85%
06:00 +27°C° 0 mm 3 mps 719 mmHg 81%
07:00 +28°C° 0 mm 4 mps 719 mmHg 77%
08:00 +29°C° 0 mm 5 mps 720 mmHg 73%
09:00 +30°C° 0 mm 5 mps 720 mmHg 69%
10:00 +32°C° 0 mm 5 mps 720 mmHg 65%
11:00 +33°C° 0 mm 5 mps 720 mmHg 62%
12:00 +34°C° 0 mm 5 mps 719 mmHg 60%
13:00 +34°C° 0 mm 5 mps 719 mmHg 58%
14:00 +35°C° 0 mm 5 mps 718 mmHg 56%
15:00 +34°C° 0 mm 4 mps 718 mmHg 58%
16:00 +34°C° 0 mm 4 mps 718 mmHg 60%
17:00 +34°C° 0 mm 3 mps 717 mmHg 62%
18:00 +33°C° 0 mm 3 mps 718 mmHg 65%
19:00 +31°C° 0 mm 3 mps 718 mmHg 67%
20:00 +30°C° 0 mm 3 mps 718 mmHg 69%
21:00 +30°C° 0 mm 3 mps 718 mmHg 71%
22:00 +29°C° 0 mm 3 mps 718 mmHg 72%
23:00 +29°C° 0 mm 4 mps 719 mmHg 73%
Show more